Weather History for EGDR - October, 2012

Change the Weather History Date:

Thursday, October 25, 2012

  Actual Average Record
Temperature  
Mean Temperature 55 °F -  
Max Temperature 58 °F 52 °F 61 °F (2013)
Min Temperature 52 °F 44 °F 33 °F (2010)
Degree Days  
Heating Degree Days 10    
Growing Degree Days 5 (Base 50)    
Moisture  
Dew Point 52 °F    
Average Humidity 89    
Maximum Humidity 94    
Minimum Humidity 79    
Precipitation  
Precipitation 0.00 in - - ()
Sea Level Pressure  
Sea Level Pressure 29.87 in    
Wind  
Wind Speed 18 mph ()    
Max Wind Speed 31 mph    
Max Gust Speed 40 mph    
Visibility 3.1 miles    
Events Rain    
Averages and records for this station are not official NWS values.
T = Trace of Precipitation, MM = Missing Value Source: Averaged Metar Reports

Daily Weather History Graph

Daily Weather History Graph

Search for Another Location

Airport or City:

Trip Planner

Search our weather history database for the weather conditions in past years. The results will help you decide how hot, cold, wet, or windy it might be!

Date:

Astronomy

Oct. 25, 2012 Rise Set
Actual Time 7:59 AM BST 6:09 PM BST
Civil Twilight 7:26 AM BST 6:42 PM BST
Nautical Twilight 6:48 AM BST 7:20 PM BST
Astronomical Twilight 6:11 AM BST 7:58 PM BST
Moon 4:08 PM BST (10/25) 3:19 AM BST (10/25)
Length of Visible Light 11h 16m
Length of Day
10h 09m
Waxing Gibbous, 82% of the Moon is Illuminated
Oct 25
Waxing Gibbous
Oct 29
Full
Nov 7
Last Quarter
Nov 13
New
Nov 20
First Quarter

Hourly Weather History & Observations

Time (BST) Temp. Dew Point Humidity Pressure Visibility Wind Dir Wind Speed Gust Speed Precip Events Conditions
12:50 AM 55 °F 50 °F 79% 29.93 in 3 mi East 16.1 mph - -   Haze
12:50 AM 55.4 °F 50.0 °F 82% 29.92 in 3.1 mi East 16.1 mph 27.6 mph N/A   Haze
1:50 AM 53.6 °F 50.0 °F 88% 29.92 in 3.1 mi ESE 13.8 mph - N/A   Haze
2:50 AM 53.6 °F 50.0 °F 88% 29.92 in 3.1 mi East 13.8 mph - N/A   Haze
3:50 AM 54 °F 49 °F 79% 29.90 in 3 mi East 16.1 mph - -   Haze
3:50 AM 53.6 °F 50.0 °F 88% 29.89 in 3.1 mi East 16.1 mph - N/A   Haze
4:50 AM 51.8 °F 50.0 °F 94% 29.89 in 3.1 mi East 15.0 mph - N/A   Haze
5:50 AM 53.6 °F 50.0 °F 88% 29.89 in 3.1 mi East 16.1 mph - N/A   Haze
6:50 AM 53 °F 51 °F 88% 29.89 in 3 mi East 18.4 mph - -   Haze
6:50 AM 53.6 °F 50.0 °F 88% 29.89 in 3.1 mi East 18.4 mph - N/A   Haze
7:50 AM 53.6 °F 50.0 °F 88% 29.89 in 3.1 mi East 25.3 mph - N/A   Haze
8:50 AM 53.6 °F 51.8 °F 94% 29.89 in 3.1 mi East 20.7 mph - N/A   Haze
9:50 AM 56 °F 52 °F 83% 29.89 in 3 mi East 24.2 mph - -   Haze
9:50 AM 55.4 °F 51.8 °F 88% 29.89 in 3.1 mi East 24.2 mph - N/A   Haze
10:50 AM 57.2 °F 53.6 °F 88% 29.89 in 3.1 mi East 24.2 mph - N/A   Haze
11:50 AM 57.2 °F 53.6 °F 88% 29.89 in 2.5 mi East 31.1 mph - N/A   Haze
12:50 PM 58 °F 54 °F 83% 29.87 in 2 mi East 25.3 mph - -   Haze
12:50 PM 57.2 °F 53.6 °F 88% 29.86 in 2.5 mi East 25.3 mph 38.0 mph N/A   Haze
1:50 PM 57.2 °F 55.4 °F 94% 29.83 in 2.5 mi East 27.6 mph - N/A   Haze
2:50 PM 57.2 °F 53.6 °F 88% 29.83 in 1.9 mi East 26.5 mph - N/A   Haze
3:50 PM 57 °F 54 °F 85% 29.83 in 2 mi East 31.1 mph - -   Haze
4:50 PM 57.2 °F 53.6 °F 88% 29.83 in 1.9 mi East 25.3 mph - N/A   Haze
5:50 PM 57.2 °F 53.6 °F 88% 29.83 in 1.9 mi East 23.0 mph 36.8 mph N/A   Haze
6:50 PM 57 °F 55 °F 90% 29.84 in 2 mi East 17.3 mph - - Rain Light Rain
6:50 PM 57.2 °F 55.4 °F 94% 29.83 in 1.9 mi East 17.3 mph 31.1 mph N/A Rain Light Rain
7:50 PM 57.2 °F 55.4 °F 94% 29.83 in 2.2 mi East 23.0 mph 36.8 mph N/A   Haze
8:50 PM 57.2 °F 55.4 °F 94% 29.83 in 2.8 mi East 20.7 mph 35.7 mph N/A   Haze
9:50 PM 56 °F 54 °F 90% 29.84 in 5 mi East 20.7 mph - -   Haze
9:50 PM 55.4 °F 53.6 °F 94% 29.83 in 5.0 mi East 20.7 mph 32.2 mph N/A   Haze
10:50 PM 55.4 °F 53.6 °F 94% 29.83 in 6.2 mi East 20.7 mph 33.4 mph N/A   Haze
11:50 PM 53.6 °F 51.8 °F 94% 29.83 in 6.2 mi East 23.0 mph 40.3 mph N/A   Haze